Erwin, NC

11:07 AM EDT on April 23, 2017 (GMT -0400)
Harnett County

Weather History for KHRJ - March, 2013

Change the Weather History Date:

Friday, March 22, 2013

  Actual Average Record
Temperature  
Mean Temperature 40 °F -  
Max Temperature 54 °F 64 °F 84 °F (2011)
Min Temperature 26 °F 41 °F 26 °F (1965)
Degree Days  
Heating Degree Days 25    
Moisture  
Dew Point 13 °F    
Average Humidity 36    
Maximum Humidity 63    
Minimum Humidity 17    
Precipitation  
Precipitation 0.00 in - - ()
Sea Level Pressure  
Sea Level Pressure 30.03 in    
Wind  
Wind Speed 3 mph (West)    
Max Wind Speed 9 mph    
Max Gust Speed 16 mph    
Visibility 10 miles    
Events      
Averages and records for this station are not official NWS values.
T = Trace of Precipitation, MM = Missing Value Source: NWS Daily Summary

Daily Weather History Graph

Daily Weather History Graph

Search for Another Location

Airport or City:

Trip Planner

Search our weather history database for the weather conditions in past years. The results will help you decide how hot, cold, wet, or windy it might be!

Date:

Astronomy

Mar. 22, 2013 Rise Set
Actual Time 7:15 AM EDT 7:28 PM EDT
Civil Twilight 6:50 AM EDT 7:53 PM EDT
Nautical Twilight 6:20 AM EDT 8:23 PM EDT
Astronomical Twilight 5:50 AM EDT 8:53 PM EDT
Moon 3:02 PM EDT (3/22) 4:05 AM EDT (3/22)
Length of Visible Light 13h 03m
Length of Day
12h 13m
Waxing Gibbous, 77% of the Moon is Illuminated
Mar 22
Waxing Gibbous
Mar 27
Full
Apr 3
Last Quarter
Apr 10
New
Apr 18
First Quarter

Hourly Weather History & Observations

Time (EDT) Temp. Windchill Dew Point Humidity Pressure Visibility Wind Dir Wind Speed Gust Speed Precip Events Conditions
12:15 AM 33.6 °F 28.4 °F 9.7 °F 37% 29.98 in 10.0 mi NNW 5.8 mph - N/A   Clear
12:35 AM 33.3 °F 26.4 °F 9.3 °F 37% 29.98 in 10.0 mi NNW 8.1 mph - N/A   Clear
12:55 AM 32.7 °F 28.3 °F 9.7 °F 38% 29.99 in 10.0 mi NNW 4.6 mph - N/A   Clear
1:15 AM 32.2 °F 26.7 °F 10.4 °F 40% 29.99 in 10.0 mi NNW 5.8 mph - N/A   Clear
1:35 AM 32.0 °F - 10.9 °F 42% 30.00 in 10.0 mi Calm Calm - N/A   Clear
1:55 AM 30.9 °F - 12.2 °F 46% 30.00 in 10.0 mi Calm Calm - N/A   Clear
2:15 AM 31.1 °F 25.4 °F 12.4 °F 46% 30.00 in 10.0 mi NNW 5.8 mph - N/A   Clear
2:35 AM 31.1 °F 26.4 °F 11.3 °F 44% 29.99 in 10.0 mi NNW 4.6 mph - N/A   Clear
2:55 AM 31.1 °F 24.5 °F 12.2 °F 46% 29.99 in 10.0 mi NNW 6.9 mph 16.1 mph N/A   Clear
3:15 AM 31.1 °F - 11.7 °F 45% 30.00 in 10.0 mi Calm Calm - N/A   Clear
3:35 AM 30.4 °F - 12.7 °F 48% 30.01 in 10.0 mi Calm Calm - N/A   Clear
3:55 AM 30.0 °F - 12.7 °F 49% 30.01 in 10.0 mi Calm Calm - N/A   Clear
4:15 AM 29.7 °F - 12.4 °F 49% 30.01 in 10.0 mi Calm Calm - N/A   Clear
4:35 AM 28.9 °F - 12.7 °F 51% 30.02 in 10.0 mi Calm Calm - N/A   Clear
4:55 AM 29.1 °F - 13.1 °F 51% 30.02 in 10.0 mi Calm Calm - N/A   Clear
5:15 AM 29.1 °F - 12.9 °F 51% 30.02 in 10.0 mi Calm Calm - N/A   Clear
5:35 AM 28.2 °F - 13.5 °F 54% 30.03 in 10.0 mi Calm Calm - N/A   Clear
5:55 AM 27.5 °F - 13.8 °F 56% 30.04 in 10.0 mi Calm Calm - N/A   Clear
6:15 AM 26.6 °F - 15.4 °F 63% 30.04 in 10.0 mi Calm Calm - N/A   Clear
6:35 AM 27.0 °F - 14.7 °F 60% 30.05 in 10.0 mi Calm Calm - N/A   Clear
6:55 AM 27.7 °F 23.8 °F 14.7 °F 58% 30.07 in 10.0 mi WSW 3.5 mph - N/A   Clear
7:15 AM 27.5 °F - 14.7 °F 59% 30.07 in 10.0 mi Calm Calm - N/A   Clear
7:35 AM 27.5 °F 23.6 °F 14.2 °F 57% 30.08 in 10.0 mi West 3.5 mph - N/A   Clear
7:55 AM 27.5 °F - 14.5 °F 58% 30.09 in 10.0 mi Calm Calm - N/A   Clear
8:15 AM 29.3 °F - 14.2 °F 53% 30.09 in 10.0 mi Calm Calm - N/A   Clear
8:35 AM 31.1 °F 27.7 °F 14.5 °F 50% 30.09 in 10.0 mi WNW 3.5 mph - N/A   Clear
8:55 AM 32.2 °F 28.9 °F 14.4 °F 48% 30.10 in 10.0 mi WNW 3.5 mph - N/A   Clear
9:15 AM 33.3 °F 27.9 °F 12.9 °F 43% 30.09 in 10.0 mi NW 5.8 mph - N/A   Clear
9:35 AM 33.8 °F 30.8 °F 11.5 °F 40% 30.09 in 10.0 mi NW 3.5 mph - N/A   Clear
9:55 AM 34.7 °F - 11.1 °F 38% 30.09 in 10.0 mi Calm Calm - N/A   Clear
10:15 AM 35.4 °F 32.6 °F 10.4 °F 36% 30.09 in 10.0 mi NNW 3.5 mph - N/A   Clear
10:35 AM 37.0 °F 34.5 °F 10.4 °F 33% 30.10 in 10.0 mi WNW 3.5 mph - N/A   Clear
10:55 AM 37.6 °F 33.1 °F 9.3 °F 31% 30.09 in 10.0 mi West 5.8 mph - N/A   Clear
11:15 AM 39.7 °F 37.6 °F 11.1 °F 31% 30.08 in 10.0 mi NNW 3.5 mph - N/A   Clear
11:35 AM 40.1 °F 36.1 °F 9.7 °F 29% 30.08 in 10.0 mi West 5.8 mph - N/A   Clear
11:55 AM 41.5 °F 37.1 °F 9.5 °F 27% 30.07 in 10.0 mi NW 6.9 mph - N/A   Clear
12:15 PM 42.8 °F 40.1 °F 9.5 °F 26% 30.07 in 10.0 mi WSW 4.6 mph - N/A   Clear
12:35 PM 43.7 °F 41.1 °F 9.5 °F 25% 30.06 in 10.0 mi SW 4.6 mph - N/A   Clear
12:55 PM 45.9 °F 44.6 °F 10.8 °F 24% 30.06 in 10.0 mi WSW 3.5 mph - N/A   Clear
1:15 PM 47.1 °F - 10.6 °F 23% 30.05 in 10.0 mi WNW 3.5 mph - N/A   Clear
1:35 PM 47.1 °F - 10.8 °F 23% 30.03 in 10.0 mi NW 6.9 mph - N/A   Clear
1:55 PM 47.8 °F - 9.5 °F 21% 30.03 in 10.0 mi WSW 8.1 mph - N/A   Clear
2:15 PM 49.3 °F - 10.2 °F 21% 30.02 in 10.0 mi WSW 5.8 mph - N/A   Clear
2:35 PM 49.6 °F - 11.5 °F 22% 30.01 in 10.0 mi West 3.5 mph - N/A   Clear
2:55 PM 49.8 °F - 9.9 °F 20% 30.00 in 10.0 mi WSW 6.9 mph - N/A   Clear
3:15 PM 50.9 °F - 10.6 °F 20% 29.99 in 10.0 mi Calm Calm - N/A   Clear
3:35 PM 51.4 °F - 10.0 °F 19% 29.99 in 10.0 mi West 4.6 mph - N/A   Clear
3:55 PM 52.9 °F - 11.1 °F 19% 29.99 in 10.0 mi West 4.6 mph - N/A   Clear
4:15 PM 52.9 °F - 10.0 °F 18% 29.98 in 10.0 mi SW 3.5 mph - N/A   Clear
4:35 PM 53.2 °F - 9.9 °F 18% 29.98 in 10.0 mi SW 9.2 mph - N/A   Clear
4:55 PM 53.4 °F - 9.5 °F 17% 29.98 in 10.0 mi WSW 9.2 mph - N/A   Clear
5:15 PM 53.2 °F - 10.8 °F 18% 29.98 in 10.0 mi West 6.9 mph - N/A   Clear
5:35 PM 54.0 °F - 11.3 °F 18% 29.98 in 10.0 mi WSW 6.9 mph - N/A   Clear
5:55 PM 53.6 °F - 10.2 °F 18% 29.98 in 10.0 mi WSW 8.1 mph - N/A   Clear
6:15 PM 52.3 °F - 11.8 °F 20% 29.98 in 10.0 mi West 4.6 mph - N/A   Clear
6:35 PM 51.8 °F - 12.2 °F 21% 29.98 in 10.0 mi WSW 4.6 mph - N/A   Mostly Cloudy
6:55 PM 51.3 °F - 13.1 °F 22% 29.98 in 10.0 mi WSW 4.6 mph - N/A   Scattered Clouds
7:15 PM 50.5 °F - 14.4 °F 24% 29.99 in 10.0 mi WSW 5.8 mph - N/A   Clear
7:35 PM 49.8 °F - 14.2 °F 24% 29.99 in 10.0 mi WSW 3.5 mph - N/A   Clear
7:55 PM 48.7 °F - 14.9 °F 26% 29.99 in 10.0 mi Calm Calm - N/A   Clear
8:15 PM 48.2 °F - 15.1 °F 27% 30.00 in 10.0 mi Calm Calm - N/A   Clear
8:35 PM 47.8 °F - 14.9 °F 27% 30.00 in 10.0 mi Calm Calm - N/A   Clear
8:55 PM 46.9 °F - 15.8 °F 29% 30.01 in 10.0 mi Calm Calm - N/A   Clear
9:15 PM 45.5 °F 44.2 °F 17.8 °F 33% 30.02 in 10.0 mi SSW 3.5 mph - N/A   Clear
9:35 PM 45.9 °F 44.6 °F 19.0 °F 34% 30.02 in 10.0 mi SW 3.5 mph - N/A   Clear
9:55 PM 44.4 °F - 22.1 °F 41% 30.02 in 10.0 mi Calm Calm - N/A   Clear
10:15 PM 45.0 °F 43.5 °F 19.4 °F 36% 30.02 in 10.0 mi SW 3.5 mph - N/A   Scattered Clouds
10:35 PM 44.4 °F - 21.7 °F 41% 30.03 in 10.0 mi Calm Calm - N/A   Clear
10:55 PM 44.1 °F - 22.1 °F 42% 30.03 in 10.0 mi Calm Calm - N/A   Clear
11:15 PM 44.1 °F - 22.6 °F 43% 30.03 in 10.0 mi Calm Calm - N/A   Mostly Cloudy
11:35 PM 43.9 °F - 22.1 °F 42% 30.03 in 10.0 mi Calm Calm - N/A   Mostly Cloudy
11:55 PM 42.3 °F - 23.5 °F 48% 30.03 in 10.0 mi Calm Calm - N/A   Scattered Clouds